Yuma MCAS, AZ

7:22 AM MST on February 24, 2018 (GMT -0700)
Yuma Marine Corps Air Station

Weather History for KNYL - December, 2012

Change the Weather History Date:

Monday, December 3, 2012

  Actual Average Record
Temperature  
Mean Temperature 67 °F 59 °F  
Max Temperature 78 °F 70 °F 86 °F (1958)
Min Temperature 56 °F 48 °F 35 °F (1948)
Degree Days  
Heating Degree Days 0 6  
Month to date heating degree days 0 17  
Since 1 July heating degree days 22 85  
Cooling Degree Days 2 0  
Month to date cooling degree days 6 0  
Year to date cooling degree days 4920 4649  
Growing Degree Days 17 (Base 50)    
Moisture  
Dew Point 48 °F    
Average Humidity 50    
Maximum Humidity 67    
Minimum Humidity 33    
Precipitation  
Precipitation 0.00 in 0.02 in 1.10 in (1926)
Month to date precipitation 0.00 0.04  
Year to date precipitation 2.37 3.09  
Sea Level Pressure  
Sea Level Pressure 30.05 in    
Wind  
Wind Speed 2 mph (WSW)    
Max Wind Speed 10 mph    
Max Gust Speed 13 mph    
Visibility 10 miles    
Events      
T = Trace of Precipitation, MM = Missing Value Source: NWS Daily Summary

Daily Weather History Graph

Daily Weather History Graph

Search for Another Location

Airport or City:

Trip Planner

Search our weather history database for the weather conditions in past years. The results will help you decide how hot, cold, wet, or windy it might be!

Date:

Astronomy

Dec. 03, 2012 Rise Set
Actual Time 7:24 AM MST 5:32 PM MST
Civil Twilight 6:57 AM MST 5:59 PM MST
Nautical Twilight 6:27 AM MST 6:29 PM MST
Astronomical Twilight 5:57 AM MST 6:59 PM MST
Moon 10:14 PM MST (12/3) 10:57 AM MST (12/3)
Length of Visible Light 11h 01m
Length of Day
10h 07m
Waning Gibbous, 77% of the Moon is Illuminated
Dec 3
Waning Gibbous
Dec 6
Last Quarter
Dec 13
New
Dec 19
First Quarter
Dec 28
Full

Hourly Weather History & Observations

Time (MST) Temp. Dew Point Humidity Pressure Visibility Wind Dir Wind Speed Gust Speed Precip Events Conditions
12:00 AM - - N/A% - - North - - N/A   Unknown
12:55 AM 61.0 °F 48.0 °F 62% 30.01 in 10.0 mi SSW 3.5 mph - N/A   Scattered Clouds
1:55 AM 63.0 °F 48.0 °F 58% 30.00 in 10.0 mi SW 5.8 mph - N/A   Scattered Clouds
2:55 AM 63.0 °F 48.0 °F 58% 30.01 in 10.0 mi Calm Calm - N/A   Scattered Clouds
3:55 AM 62.1 °F 46.9 °F 58% 30.03 in 10.0 mi Calm Calm - N/A   Partly Cloudy
4:55 AM 57.9 °F 46.9 °F 67% 30.01 in 10.0 mi SSE 3.5 mph - N/A   Partly Cloudy
5:55 AM 59.0 °F 46.9 °F 64% 30.03 in 10.0 mi Calm Calm - N/A   Partly Cloudy
6:55 AM 59.0 °F 48.0 °F 67% 30.04 in 10.0 mi Calm Calm - N/A   Scattered Clouds
7:55 AM 57.9 °F 46.9 °F 67% 30.05 in 10.0 mi Calm Calm - N/A   Mostly Cloudy
8:55 AM 61.0 °F 48.0 °F 62% 30.08 in 10.0 mi Calm Calm - N/A   Mostly Cloudy
9:55 AM 68.0 °F 48.9 °F 50% 30.09 in 10.0 mi Calm Calm - N/A   Mostly Cloudy
10:55 AM 71.1 °F 50.0 °F 47% 30.09 in 10.0 mi Calm Calm - N/A   Scattered Clouds
11:55 AM 73.9 °F 51.1 °F 45% 30.08 in 10.0 mi NW 4.6 mph - N/A   Scattered Clouds
12:55 PM 75.0 °F 50.0 °F 41% 30.05 in 10.0 mi Variable 3.5 mph - N/A   Scattered Clouds
1:55 PM 75.9 °F 48.9 °F 38% 30.04 in 10.0 mi Calm Calm - N/A   Scattered Clouds
2:55 PM 77.0 °F 48.0 °F 36% 30.02 in 10.0 mi NW 3.5 mph - N/A   Mostly Cloudy
3:55 PM 77.0 °F 46.9 °F 34% 30.02 in 10.0 mi WSW 3.5 mph - N/A   Mostly Cloudy
4:55 PM 77.0 °F 46.9 °F 34% 30.01 in 10.0 mi WSW 3.5 mph - N/A   Scattered Clouds
5:55 PM 73.9 °F 48.9 °F 41% 30.03 in 10.0 mi West 3.5 mph - N/A   Mostly Cloudy
6:55 PM 71.1 °F 48.9 °F 45% 30.05 in 10.0 mi West 3.5 mph - N/A   Mostly Cloudy
7:55 PM 69.1 °F 48.0 °F 47% 30.06 in 10.0 mi Calm Calm - N/A   Mostly Cloudy
8:55 PM 66.0 °F 48.9 °F 54% 30.08 in 10.0 mi Calm Calm - N/A   Mostly Cloudy
9:55 PM 66.0 °F 48.0 °F 52% 30.10 in 10.0 mi Calm Calm - N/A   Mostly Cloudy
10:55 PM 64.0 °F 48.0 °F 56% 30.12 in 10.0 mi Calm Calm - N/A   Mostly Cloudy
11:55 PM 64.0 °F 46.9 °F 54% 30.12 in 10.0 mi Calm Calm - N/A   Mostly Cloudy